• In Hungary
  • List of Countries
  • For 7 days
  • Water Temperature
  • Satellite Maps
  • Weather Map
  • News
  • Weather Widgets
  • user-avatar
    Login

    Hourly Weather Firovo

    Today, 22 October, Monday

    Time Temperature Precipitation Wind Pressure Humidity
    00:00 +3°C° 0 mm 2 mps 748 mmHg 89%
    01:00 +2°C° 0 mm 3 mps 748 mmHg 89%
    02:00 +2°C° 0 mm 3 mps 747 mmHg 89%
    03:00 +2°C° 0 mm 3 mps 747 mmHg 88%
    04:00 +2°C° 0 mm 3 mps 746 mmHg 87%
    05:00 +1°C° 0 mm 4 mps 745 mmHg 87%
    06:00 +3°C° 0 mm 4 mps 745 mmHg 84%
    07:00 +3°C° 0 mm 4 mps 745 mmHg 82%
    08:00 +2°C° 0 mm 5 mps 744 mmHg 80%
    09:00 +3°C° 0 mm 5 mps 744 mmHg 76%
    10:00 +5°C° 0 mm 5 mps 743 mmHg 73%
    11:00 +6°C° 0 mm 5 mps 743 mmHg 69%
    12:00 +7°C° 0 mm 5 mps 742 mmHg 69%
    13:00 +7°C° 0 mm 5 mps 741 mmHg 69%
    14:00 +7°C° 0 mm 5 mps 741 mmHg 69%
    15:00 +7°C° 0 mm 5 mps 740 mmHg 71%
    16:00 +7°C° 0 mm 5 mps 740 mmHg 73%
    17:00 +6°C° 0 mm 5 mps 739 mmHg 75%
    18:00 +6°C° 0.2 mm 5 mps 739 mmHg 77%
    19:00 +6°C° 0.2 mm 5 mps 738 mmHg 79%
    20:00 +6°C° 0.2 mm 5 mps 738 mmHg 81%
    21:00 +6°C° 0.4 mm 4 mps 737 mmHg 83%
    22:00 +6°C° 0.4 mm 4 mps 737 mmHg 85%
    23:00 +6°C° 0.4 mm 4 mps 736 mmHg 88%

    Tomorrow, 23 October, Tuesday

    Time Temperature Precipitation Wind Pressure Humidity
    00:00 +6°C° 0.3 mm 4 mps 736 mmHg 87%
    01:00 +6°C° 0.3 mm 4 mps 736 mmHg 87%
    02:00 +6°C° 0.3 mm 4 mps 736 mmHg 87%
    03:00 +5°C° 0.1 mm 4 mps 736 mmHg 87%
    04:00 +4°C° 0.1 mm 3 mps 735 mmHg 86%
    05:00 +3°C° 0.1 mm 3 mps 735 mmHg 86%
    06:00 +3°C° 0 mm 3 mps 735 mmHg 85%
    07:00 +3°C° 0 mm 3 mps 735 mmHg 84%
    08:00 +2°C° 0 mm 3 mps 735 mmHg 83%
    09:00 +3°C° 0 mm 3 mps 735 mmHg 78%
    10:00 +4°C° 0 mm 3 mps 735 mmHg 73%
    11:00 +5°C° 0 mm 3 mps 735 mmHg 68%
    12:00 +5°C° 0 mm 3 mps 734 mmHg 67%
    13:00 +5°C° 0 mm 3 mps 733 mmHg 65%
    14:00 +6°C° 0 mm 2 mps 733 mmHg 64%
    15:00 +6°C° 0 mm 2 mps 732 mmHg 69%
    16:00 +5°C° 0 mm 2 mps 732 mmHg 74%
    17:00 +4°C° 0 mm 2 mps 731 mmHg 80%
    18:00 +3°C° 0 mm 2 mps 730 mmHg 82%
    19:00 +3°C° 0 mm 2 mps 730 mmHg 84%
    20:00 +3°C° 0 mm 2 mps 729 mmHg 86%
    21:00 +2°C° 0 mm 2 mps 728 mmHg 86%
    22:00 +1°C° 0 mm 3 mps 727 mmHg 87%
    23:00 +1°C° 0 mm 3 mps 727 mmHg 88%

    Day after tomorrow, 24 October, Wednesday

    Time Temperature Precipitation Wind Pressure Humidity
    00:00 +1°C° 0 mm 3 mps 726 mmHg 87%
    01:00 0°C° 0 mm 3 mps 725 mmHg 87%
    02:00 0°C° 0 mm 3 mps 724 mmHg 87%
    03:00 0°C° 0 mm 3 mps 724 mmHg 87%
    04:00 -1°C° 0 mm 4 mps 723 mmHg 87%
    05:00 -1°C° 0 mm 4 mps 722 mmHg 86%
    06:00 -1°C° 0 mm 4 mps 722 mmHg 86%
    07:00 -1°C° 0 mm 4 mps 722 mmHg 85%
    08:00 -1°C° 0 mm 4 mps 722 mmHg 85%
    09:00 0°C° 0 mm 4 mps 722 mmHg 80%
    10:00 +1°C° 0 mm 4 mps 721 mmHg 76%
    11:00 +3°C° 0 mm 4 mps 721 mmHg 72%
    12:00 +3°C° 0 mm 4 mps 721 mmHg 71%
    13:00 +4°C° 0 mm 4 mps 722 mmHg 70%
    14:00 +4°C° 0 mm 4 mps 722 mmHg 69%
    15:00 +3°C° 0.1 mm 4 mps 722 mmHg 72%
    16:00 +3°C° 0.1 mm 4 mps 722 mmHg 76%
    17:00 +1°C° 0.1 mm 4 mps 722 mmHg 79%
    18:00 +1°C° 0.1 mm 4 mps 723 mmHg 81%
    19:00 +1°C° 0.1 mm 4 mps 723 mmHg 82%
    20:00 +2°C° 0.1 mm 3 mps 723 mmHg 84%
    21:00 +2°C° 0.1 mm 3 mps 724 mmHg 85%
    22:00 +2°C° 0.1 mm 3 mps 724 mmHg 86%
    23:00 +1°C° 0.1 mm 3 mps 724 mmHg 88%

    25 October, Thursday

    Time Temperature Precipitation Wind Pressure Humidity
    00:00 +1°C° 0.2 mm 3 mps 724 mmHg 88%
    01:00 +1°C° 0.2 mm 3 mps 725 mmHg 89%
    02:00 +1°C° 0.2 mm 3 mps 725 mmHg 89%
    03:00 +1°C° 0.1 mm 3 mps 725 mmHg 89%
    04:00 +1°C° 0.1 mm 3 mps 725 mmHg 89%
    05:00 0°C° 0.1 mm 4 mps 725 mmHg 89%
    06:00 0°C° 0 mm 4 mps 725 mmHg 88%
    07:00 0°C° 0 mm 4 mps 726 mmHg 88%
    08:00 -1°C° 0 mm 4 mps 726 mmHg 87%
    09:00 0°C° 0 mm 4 mps 726 mmHg 83%
    10:00 +1°C° 0 mm 4 mps 726 mmHg 79%
    11:00 +1°C° 0 mm 4 mps 726 mmHg 75%
    12:00 +3°C° 0 mm 4 mps 726 mmHg 74%
    13:00 +3°C° 0 mm 4 mps 726 mmHg 72%
    14:00 +3°C° 0 mm 4 mps 726 mmHg 70%
    15:00 +1°C° 0 mm 4 mps 725 mmHg 73%
    16:00 +1°C° 0 mm 4 mps 725 mmHg 77%
    17:00 0°C° 0 mm 4 mps 725 mmHg 80%
    18:00 -1°C° 0 mm 4 mps 725 mmHg 82%
    19:00 -1°C° 0 mm 4 mps 725 mmHg 83%
    20:00 -2°C° 0 mm 4 mps 725 mmHg 85%
    21:00 -1°C° 0 mm 3 mps 725 mmHg 86%
    22:00 -1°C° 0 mm 3 mps 725 mmHg 88%
    23:00 -2°C° 0 mm 3 mps 725 mmHg 89%

    26 October, Friday

    Time Temperature Precipitation Wind Pressure Humidity
    00:00 -2°C° 0 mm 3 mps 725 mmHg 89%
    01:00 -1°C° 0 mm 3 mps 725 mmHg 90%
    02:00 -1°C° 0 mm 3 mps 725 mmHg 90%
    03:00 -1°C° 0 mm 3 mps 725 mmHg 90%
    04:00 -1°C° 0 mm 4 mps 725 mmHg 90%
    05:00 -1°C° 0 mm 4 mps 726 mmHg 90%
    06:00 -1°C° 0 mm 4 mps 726 mmHg 88%
    07:00 -1°C° 0 mm 4 mps 726 mmHg 86%
    08:00 0°C° 0 mm 4 mps 727 mmHg 84%
    09:00 0°C° 0 mm 4 mps 727 mmHg 83%
    10:00 0°C° 0 mm 4 mps 727 mmHg 81%
    11:00 +1°C° 0 mm 4 mps 728 mmHg 80%
    12:00 +1°C° 0 mm 4 mps 728 mmHg 80%
    13:00 +1°C° 0 mm 4 mps 728 mmHg 79%
    14:00 +2°C° 0 mm 3 mps 729 mmHg 79%
    15:00 +2°C° 0 mm 3 mps 729 mmHg 82%
    16:00 +2°C° 0 mm 3 mps 730 mmHg 84%
    17:00 +2°C° 0 mm 2 mps 730 mmHg 87%
    18:00 +1°C° 0 mm 3 mps 730 mmHg 88%
    19:00 +1°C° 0 mm 3 mps 730 mmHg 90%
    20:00 +1°C° 0 mm 3 mps 731 mmHg 91%
    21:00 +1°C° 0 mm 3 mps 731 mmHg 91%
    22:00 +2°C° 0 mm 3 mps 731 mmHg 91%
    23:00 +2°C° 0 mm 3 mps 731 mmHg 91%

    27 October, Saturday

    Time Temperature Precipitation Wind Pressure Humidity
    00:00 +2°C° 0 mm 3 mps 732 mmHg 91%
    01:00 +2°C° 0 mm 3 mps 732 mmHg 91%
    02:00 +2°C° 0 mm 3 mps 732 mmHg 91%
    03:00 +2°C° 0 mm 3 mps 732 mmHg 91%
    04:00 +1°C° 0 mm 3 mps 731 mmHg 92%
    05:00 +1°C° 0 mm 3 mps 731 mmHg 92%
    06:00 +2°C° 0.5 mm 3 mps 731 mmHg 90%
    07:00 +1°C° 0.5 mm 4 mps 730 mmHg 88%
    08:00 +1°C° 0.5 mm 4 mps 730 mmHg 86%
    09:00 +3°C° 0.5 mm 4 mps 730 mmHg 86%
    10:00 +3°C° 0.5 mm 5 mps 730 mmHg 86%
    11:00 +5°C° 0.5 mm 5 mps 729 mmHg 86%
    12:00 +6°C° 0.2 mm 5 mps 729 mmHg 85%
    13:00 +6°C° 0.2 mm 5 mps 729 mmHg 84%
    14:00 +6°C° 0.2 mm 5 mps 729 mmHg 83%
    15:00 +6°C° 0.2 mm 5 mps 729 mmHg 84%
    16:00 +6°C° 0.2 mm 5 mps 730 mmHg 84%
    17:00 +6°C° 0.2 mm 4 mps 730 mmHg 84%
    18:00 +5°C° 0 mm 4 mps 730 mmHg 86%
    19:00 +5°C° 0 mm 4 mps 730 mmHg 87%
    20:00 +5°C° 0 mm 3 mps 731 mmHg 89%
    21:00 +5°C° 0 mm 3 mps 731 mmHg 89%
    22:00 +5°C° 0 mm 3 mps 731 mmHg 90%
    23:00 +5°C° 0 mm 3 mps 732 mmHg 90%
    Show more